Aviation Digital Data Service (ADDS)

Output produced by METARs form (1207 UTC 24 March 2017)
found at http://www.aviationweather.gov/adds/metars/
 
DNAA 241100Z 28005KT 9999 BKN012 32/20 Q1014 NOSIG
DNAA 241100Z 28005KT 9999 BKN012 32/20 Q1014 NOSIG
TAF DNCA 240955Z 2412/2518 23010KT 9999 BKN010 
     PROB30 
     TEMPO 2414/2419 5000 -TSRA BKN008 FEW018CB 
     BECMG 2420/2422 00000KT SCT008
       
TAF DNEN 240955Z 2412/2518 19010KT 9999 SCT012 
     TEMPO 2413/2419 BKN011 FEW021CB 
     PROB30 2415/2420 5000 -TSRA BKN009 FEW019CB 
     BECMG 2420/2422 00000KT SCT009
       
DNPO 241100Z 08006KT 9999 SCT011 30/22 Q1012 NOSIG
TAF DNPO 240955Z 2412/2518 20010KT 9999 SCT010 
     TEMPO 2412/2418 TS BKN011 FEW020CB 
     PROB30 2414/2420 5000 -TSRA BKN008 FEW019CB 
     BECMG 2421/2423 00000KT SCT008
       
DNAA 241100Z 28005KT 9999 BKN012 32/20 Q1014 NOSIG
TAF DNCA 240955Z 2412/2518 23010KT 9999 BKN010 
     PROB30 
     TEMPO 2414/2419 5000 -TSRA BKN008 FEW018CB 
     BECMG 2420/2422 00000KT SCT008
       
TAF DNEN 240955Z 2412/2518 19010KT 9999 SCT012 
     TEMPO 2413/2419 BKN011 FEW021CB 
     PROB30 2415/2420 5000 -TSRA BKN009 FEW019CB 
     BECMG 2420/2422 00000KT SCT009
       
DNPO 241100Z 08006KT 9999 SCT011 30/22 Q1012 NOSIG
TAF DNPO 240955Z 2412/2518 20010KT 9999 SCT010 
     TEMPO 2412/2418 TS BKN011 FEW020CB 
     PROB30 2414/2420 5000 -TSRA BKN008 FEW019CB 
     BECMG 2421/2423 00000KT SCT008
       
TAF DNCA 240955Z 2412/2518 23010KT 9999 BKN010 
     PROB30 
     TEMPO 2414/2419 5000 -TSRA BKN008 FEW018CB 
     BECMG 2420/2422 00000KT SCT008
       
DNAA 241100Z 28005KT 9999 BKN012 32/20 Q1014 NOSIG
TAF DNCA 240955Z 2412/2518 23010KT 9999 BKN010 
     PROB30 
     TEMPO 2414/2419 5000 -TSRA BKN008 FEW018CB 
     BECMG 2420/2422 00000KT SCT008
       
TAF DNEN 240955Z 2412/2518 19010KT 9999 SCT012 
     TEMPO 2413/2419 BKN011 FEW021CB 
     PROB30 2415/2420 5000 -TSRA BKN009 FEW019CB 
     BECMG 2420/2422 00000KT SCT009
       
DNPO 241100Z 08006KT 9999 SCT011 30/22 Q1012 NOSIG
TAF DNPO 240955Z 2412/2518 20010KT 9999 SCT010 
     TEMPO 2412/2418 TS BKN011 FEW020CB 
     PROB30 2414/2420 5000 -TSRA BKN008 FEW019CB 
     BECMG 2421/2423 00000KT SCT008
       
TAF DNEN 240955Z 2412/2518 19010KT 9999 SCT012 
     TEMPO 2413/2419 BKN011 FEW021CB 
     PROB30 2415/2420 5000 -TSRA BKN009 FEW019CB 
     BECMG 2420/2422 00000KT SCT009
       
DNAA 241100Z 28005KT 9999 BKN012 32/20 Q1014 NOSIG
TAF DNCA 240955Z 2412/2518 23010KT 9999 BKN010 
     PROB30 
     TEMPO 2414/2419 5000 -TSRA BKN008 FEW018CB 
     BECMG 2420/2422 00000KT SCT008
       
TAF DNEN 240955Z 2412/2518 19010KT 9999 SCT012 
     TEMPO 2413/2419 BKN011 FEW021CB 
     PROB30 2415/2420 5000 -TSRA BKN009 FEW019CB 
     BECMG 2420/2422 00000KT SCT009
       
DNPO 241100Z 08006KT 9999 SCT011 30/22 Q1012 NOSIG
TAF DNPO 240955Z 2412/2518 20010KT 9999 SCT010 
     TEMPO 2412/2418 TS BKN011 FEW020CB 
     PROB30 2414/2420 5000 -TSRA BKN008 FEW019CB 
     BECMG 2421/2423 00000KT SCT008
       
DNPO 241100Z 08006KT 9999 SCT011 30/22 Q1012 NOSIG
TAF DNPO 240955Z 2412/2518 20010KT 9999 SCT010 
     TEMPO 2412/2418 TS BKN011 FEW020CB 
     PROB30 2414/2420 5000 -TSRA BKN008 FEW019CB 
     BECMG 2421/2423 00000KT SCT008